Antwerp, Belgium

2:07 PM CEST on July 28, 2017 (GMT +0200)
Deurne

Weather History for EBAW - January, 2013

Change the Weather History Date:

Saturday, January 12, 2013

  Actual Average Record
Temperature  
Mean Temperature 30 °F -  
Max Temperature 36 °F 43 °F 53 °F (1998)
Min Temperature 23 °F 33 °F 19 °F (2003)
Degree Days  
Heating Degree Days 36    
Moisture  
Dew Point 23 °F    
Average Humidity 72    
Maximum Humidity 86    
Minimum Humidity 48    
Precipitation  
Precipitation 0.00 in - - ()
Sea Level Pressure  
Sea Level Pressure 30.02 in    
Wind  
Wind Speed 7 mph ()    
Max Wind Speed 13 mph    
Max Gust Speed -    
Visibility 5.9 miles    
Events Snow    
Averages and records for this station are not official NWS values.
T = Trace of Precipitation, MM = Missing Value Source: Averaged Metar Reports

Daily Weather History Graph

Daily Weather History Graph

Search for Another Location

Airport or City:

Trip Planner

Search our weather history database for the weather conditions in past years. The results will help you decide how hot, cold, wet, or windy it might be!

Date:

Astronomy

Jan. 12, 2013 Rise Set
Actual Time 8:41 AM CET 4:59 PM CET
Civil Twilight 8:03 AM CET 5:37 PM CET
Nautical Twilight 7:21 AM CET 6:19 PM CET
Astronomical Twilight 6:41 AM CET 6:59 PM CET
Moon 8:39 AM CET (1/12) 6:22 PM CET (1/12)
Length of Visible Light 9h 34m
Length of Day
8h 17m
New Moon, 1% of the Moon is Illuminated
Jan 12
New Moon
Jan 19
First Quarter
Jan 27
Full
Feb 3
Last Quarter
Feb 10
New

Hourly Weather History & Observations

Time (CET) Temp. Windchill Dew Point Humidity Pressure Visibility Wind Dir Wind Speed Gust Speed Precip Events Conditions
12:20 AM 28.4 °F 24.6 °F 23.0 °F 80% 30.09 in 5.6 mi NE 3.5 mph - N/A   Unknown
12:50 AM 28.4 °F 23.3 °F 23.0 °F 80% 30.06 in - ENE 4.6 mph - N/A   Clear
1:00 AM 28 °F - 23 °F 76% 30.09 in 6 mi ENE 4.5 mph - -  
1:20 AM 26.6 °F 22.6 °F 23.0 °F 86% 30.06 in 5.0 mi East 3.5 mph - N/A   Unknown
1:50 AM 26.6 °F 22.6 °F 23.0 °F 86% 30.06 in 5.0 mi East 3.5 mph - N/A   Unknown
2:20 AM 28.4 °F 23.3 °F 24.8 °F 86% 30.06 in 4.3 mi East 4.6 mph - N/A   Unknown
2:50 AM 28.4 °F 23.3 °F 24.8 °F 86% 30.06 in 4.3 mi East 4.6 mph - N/A   Unknown
3:20 AM 28.4 °F 22.2 °F 23.0 °F 80% 30.06 in 5.0 mi East 5.8 mph - N/A   Unknown
3:50 AM 26.6 °F 18.2 °F 21.2 °F 80% 30.04 in 4.3 mi ESE 8.1 mph - N/A   Unknown
4:00 AM 26 °F - 22 °F 77% 30.06 in - ESE 6.7 mph - -  
4:20 AM 26.6 °F 20.0 °F 21.2 °F 80% 30.04 in 5.0 mi ESE 5.8 mph - N/A   Unknown
4:50 AM 26.6 °F 20.0 °F 21.2 °F 80% 30.04 in 5.0 mi ESE 5.8 mph - N/A   Unknown
5:20 AM 24.8 °F 19.1 °F 21.2 °F 86% 30.04 in 4.3 mi ESE 4.6 mph - N/A   Unknown
5:50 AM 26.6 °F 20.0 °F 21.2 °F 80% 30.04 in 5.0 mi ESE 5.8 mph - N/A   Unknown
6:20 AM 24.8 °F 16.9 °F 19.4 °F 80% 30.04 in 5.6 mi ESE 6.9 mph - N/A   Unknown
6:50 AM 24.8 °F 17.9 °F 19.4 °F 80% 30.04 in 5.6 mi ESE 5.8 mph - N/A   Unknown
7:00 AM 24 °F - 20 °F 80% 30.04 in 6 mi ESE 6.7 mph - -   Scattered Clouds
7:20 AM 24.8 °F 17.9 °F 21.2 °F 86% 30.04 in 5.6 mi ESE 5.8 mph - N/A   Unknown
7:50 AM 24.8 °F 17.9 °F 19.4 °F 80% 30.04 in 5.6 mi East 5.8 mph - N/A   Unknown
8:20 AM 24.8 °F 16.9 °F 19.4 °F 80% 30.04 in 5.6 mi East 6.9 mph - N/A   Unknown
8:50 AM 24.8 °F 17.9 °F 19.4 °F 80% 30.04 in 5.6 mi East 5.8 mph - N/A   Unknown
9:20 AM 24.8 °F 17.9 °F 21.2 °F 86% 30.04 in - East 5.8 mph - N/A   Clear
9:50 AM 28.4 °F 20.4 °F 23.0 °F 80% 30.04 in - East 8.1 mph - N/A   Clear
10:00 AM 28 °F - 22 °F 72% 30.05 in 6 mi East 6.7 mph - -   Scattered Clouds
10:20 AM 28.4 °F 20.4 °F 23.0 °F 80% 30.04 in - East 8.1 mph - N/A   Clear
10:50 AM 30.2 °F 21.3 °F 23.0 °F 75% 30.04 in - East 10.4 mph - N/A   Clear
11:20 AM 32.0 °F 23.6 °F 23.0 °F 69% 30.04 in - East 10.4 mph - N/A   Clear
11:50 AM 33.8 °F 25.8 °F 23.0 °F 65% 30.01 in - ESE 10.4 mph - N/A   Clear
12:20 PM 33.8 °F 26.4 °F 23.0 °F 65% 30.01 in - ESE 9.2 mph - N/A   Clear
12:50 PM 35.6 °F 27.5 °F 23.0 °F 60% 30.01 in - ESE 11.5 mph - N/A   Clear
1:00 PM 35 °F - 22 °F 48% 30.01 in 9 mi ESE 11.2 mph - -   Scattered Clouds
1:20 PM 35.6 °F 27.1 °F 23.0 °F 60% 30.01 in - ESE 12.7 mph - N/A   Clear
1:50 PM 35.6 °F 27.1 °F 23.0 °F 60% 29.98 in - East 12.7 mph - N/A   Clear
2:20 PM 35.6 °F 27.1 °F 23.0 °F 60% 29.98 in - East 12.7 mph - N/A   Clear
2:50 PM 35.6 °F 27.5 °F 23.0 °F 60% 29.98 in - East 11.5 mph - N/A   Clear
3:20 PM 35.6 °F 28.0 °F 23.0 °F 60% 29.98 in - East 10.4 mph - N/A   Clear
3:50 PM 35.6 °F 28.6 °F 24.8 °F 65% 29.98 in - East 9.2 mph - N/A   Clear
4:00 PM 35 °F - 24 °F 53% 29.99 in 9 mi East 8.9 mph - -   Scattered Clouds
4:20 PM 35.6 °F 28.6 °F 23.0 °F 60% 29.98 in - East 9.2 mph - N/A   Clear
4:50 PM 33.8 °F 26.4 °F 24.8 °F 70% 29.98 in - East 9.2 mph - N/A   Clear
5:20 PM 33.8 °F 25.3 °F 23.0 °F 65% 29.98 in - East 11.5 mph - N/A   Clear
5:50 PM 33.8 °F 25.3 °F 24.8 °F 70% 29.98 in 6.2 mi East 11.5 mph - N/A   Partly Cloudy
6:20 PM 33.8 °F 25.3 °F 23.0 °F 65% 29.98 in 6.2 mi East 11.5 mph - N/A   Mostly Cloudy
6:50 PM 33.8 °F 24.8 °F 23.0 °F 65% 29.98 in 6.2 mi East 12.7 mph - N/A   Mostly Cloudy
7:00 PM 33 °F - 24 °F 58% 30.00 in 9 mi East 11.2 mph - -   Mostly Cloudy
7:20 PM 33.8 °F 24.8 °F 21.2 °F 60% 29.98 in 6.2 mi East 12.7 mph - N/A   Mostly Cloudy
7:50 PM 32.0 °F 22.5 °F 23.0 °F 69% 29.98 in 6.2 mi East 12.7 mph - N/A   Mostly Cloudy
8:20 PM 32.0 °F 23.0 °F 23.0 °F 69% 30.01 in 6.2 mi East 11.5 mph - N/A Snow Light Snow
8:50 PM 32.0 °F 23.6 °F 23.0 °F 69% 30.01 in 5.0 mi East 10.4 mph - N/A Snow Light Snow
9:20 PM 32.0 °F 24.2 °F 23.0 °F 69% 30.01 in 6.2 mi East 9.2 mph - N/A   Mostly Cloudy
9:50 PM 32.0 °F 23.6 °F 23.0 °F 69% 30.01 in 6.2 mi East 10.4 mph - N/A   Mostly Cloudy
10:00 PM 33 °F - 23 °F 55% 30.01 in 7 mi East 11.2 mph - -   Mostly Cloudy
10:20 PM 32.0 °F 24.2 °F 23.0 °F 69% 30.01 in 6.2 mi East 9.2 mph - N/A   Mostly Cloudy
10:50 PM 32.0 °F 24.2 °F 23.0 °F 69% 30.01 in 6.2 mi East 9.2 mph - N/A   Mostly Cloudy
11:20 PM 32.0 °F 24.2 °F 23.0 °F 69% 30.01 in 6.2 mi East 9.2 mph - N/A   Overcast
11:50 PM 32.0 °F 24.2 °F 23.0 °F 69% 30.01 in 6.2 mi East 9.2 mph - N/A   Overcast